{"data":{"norad_id":66974,"intl_designator":"2025-288R","name":"STARLINK-35780","alt_names":[],"object_type":"PAYLOAD","status":"ACTIVE","operator":null,"country":"US","launch_date":"2025-12-08","launch_site_code":"AFETR","launch_vehicle":null,"mission":null,"orbit_class":"UNKNOWN","rcs_meters":null,"size_class":null,"mass_kg":null,"dimensions":null,"purposes":["comms"],"wikipedia_slug":null,"has_3d_model":false,"image_url":null,"decayed_at":null,"tle_current":{"epoch":"2026-09-20T08:30:15.526368Z","epoch_age_seconds":93901,"freshness":"FRESH","line1":"1 66974U 25288R   26263.35434637  .00007815  00000+0  29313-3 0  9992","line2":"2 66974  43.0006   3.6762 0001765 283.7562  76.3093 15.27587354 45063","mean_motion":15.27587354,"eccentricity":0.0001765,"inclination_deg":43.0006,"raan_deg":3.6762,"arg_perigee_deg":283.7562,"mean_anomaly_deg":76.3093,"bstar":0.00029313,"rev_number":4506,"period_min":94.266294901522,"perigee_km":481.81608014706,"apogee_km":484.23807106575,"semimajor_km":6861.1640756064,"source":"CELESTRAK","updated_at":"2026-09-21T09:00:36.065081Z"}}}